Location: Cosy Dell
(34.2789°N, 117.4537°W)
Time: 12:19:47
(UTC+00:00)

DMSP B5D2-2 - Pass Details

Date: 14 July 2020
Orbit: 789 x 807 km, 98.3° (Epoch: 08 August)

Event Time Altitude Azimuth Distance (km) Brightness Sun altitude
Rises 03:35:30 0° 14° (NNE) 3,291 7.5 -6.7°
Reaches altitude 10° 03:37:50 10° 17° (NNE) 2,358 6.7 -7.1°
Maximum altitude 03:43:02 74° 102° (ESE) 822 4.0 -8.0°
Drops below altitude 10° 03:48:12 10° 187° (S) 2,343 6.3 -8.9°
Sets 03:50:31 0° 189° (S) 3,269 7.0 -9.3°
